Overview Statistics Trail Chart Weather Telemetry Raw packets
 

This is the latest recevied weather packets stored in our database for station/object SV9TNF-57. If no packets are shown the sender has not sent any weather packets the latest 10 day(s).

<< 24 25 26 27 28 29 30 >>
Time Temp. Humidity Pressure Rain* Wind** Luminosity Snow
1788493771 25.56° C 53% 993.3 hPa 0 mm 5.81 m/s, 317° - -
1788493471 25.56° C 54% 993.5 hPa 0 mm 5.36 m/s, 298° - -
1788493171 25.56° C 53% 993.5 hPa 0 mm 8.49 m/s, 333° - -
1788492870 25.56° C 53% 993.3 hPa 0 mm 7.15 m/s, 333° - -
1788492571 25.56° C 53% 993.4 hPa 0 mm 2.24 m/s, 295° - -
1788492270 25.56° C 52% 993.2 hPa 0 mm 8.49 m/s, 340° - -
1788491970 25.56° C 53% 993.5 hPa 0 mm 6.71 m/s, 344° - -
1788491670 25.56° C 53% 993.5 hPa 0 mm 7.15 m/s, 14° - -
1788491370 25.56° C 53% 993.3 hPa 0 mm 4.92 m/s, 325° - -
1788491070 25.56° C 53% 993.2 hPa 0 mm 7.15 m/s, 342° - -
1788490770 25.56° C 53% 993.4 hPa 0 mm 4.02 m/s, 358° - -
1788490470 25.56° C 52% 993.2 hPa 0 mm 4.02 m/s, 332° - -
1788490170 25.56° C 52% 993.2 hPa 0 mm 8.05 m/s, 350° - -
1788489869 25.56° C 52% 993.2 hPa 0 mm 3.58 m/s, 344° - -
1788489569 25.56° C 52% 993.2 hPa 0 mm 5.81 m/s, 336° - -
1788489269 25.56° C 52% 993.5 hPa 0 mm 6.26 m/s, 297° - -
1788488969 26.11° C 52% 993.4 hPa 0 mm 8.49 m/s, 342° - -
1788488669 25.56° C 51% 993.3 hPa 0 mm 1.34 m/s, 303° - -
1788488370 25.56° C 51% 993.1 hPa 0 mm 6.71 m/s, 279° - -
1788488069 25.56° C 52% 993.1 hPa 0 mm 6.26 m/s, 330° - -
1788487769 25.56° C 52% 993.3 hPa 0 mm 3.58 m/s, 307° - -
1788487469 25° C 53% 993.3 hPa 0 mm 1.79 m/s, 320° - -
1788487169 25.56° C 54% 993.6 hPa 0 mm 2.24 m/s, 341° - -
1788486868 25° C 54% 993.3 hPa 0 mm 1.34 m/s, 315° - -
1788486569 25° C 54% 993.3 hPa 0 mm 0.89 m/s, 283° - -

* Rain latest hour (hover to see other rain measurements)
** Current wind speed in m/s (hover to see current wind gust speed)